Location: Arrien
(42.8963°N, 1.0429°E)
Time: 20:27:37
(UTC+00:00)

SL-16 R/B - Pass Details

Date: 16 March 2026
Orbit: 841 x 845 km, 71.0° (Epoch: 11 April)

Event Time Altitude Azimuth Distance (km) Brightness Sun altitude
Exits shadow 01:40:18 11° 358° (N) 2,374 4.9 -43.7°
Drops below altitude 10° 01:40:39 10° 1° (N) 2,472 5.1 -43.6°
Sets 01:43:40 0° 16° (NNE) 3,412 6.1 -43.3°
